This is the latest recevied weather packets stored in our database for station/object KO5S. If no packets are shown the sender has not sent any weather packets the latest 10 day(s).
| Time | Temp. | Humidity | Pressure | Rain* | Wind** | Luminosity | Snow |
|---|---|---|---|---|---|---|---|
| 1778051336 | 19.44° C | 92% | 1008.8 hPa | 0 mm | - | - | - |
| 1778049516 | 19.44° C | 92% | 1009.1 hPa | 0 mm | - | - | - |
| 1778044696 | 19.44° C | 91% | 1009.5 hPa | 0 mm | - | - | - |
| 1778041695 | 19.44° C | 90% | 1009.5 hPa | 0 mm | - | - | - |
| 1778039295 | 20° C | 89% | 1009.6 hPa | 0 mm | - | - | - |
| 1778037495 | 20.56° C | 89% | 1009.7 hPa | 0 mm | - | - | - |
| 1778036896 | 20.56° C | 89% | 1009.8 hPa | 0 mm | - | - | - |
| 1778032715 | 21.11° C | 88% | 1008.9 hPa | 0 mm | - | - | - |
| 1778029695 | 21.67° C | 86% | 1009.1 hPa | 0 mm | - | - | - |
| 1778029095 | 21.67° C | 85% | 1009 hPa | 0 mm | - | - | - |
| 1778027315 | 22.22° C | 84% | 1008.9 hPa | 0 mm | - | - | - |
| 1778022495 | 23.89° C | 78% | 1008.8 hPa | 0 mm | - | - | - |
| 1778018895 | 25° C | 74% | 1008.6 hPa | 0 mm | - | - | - |
| 1778017097 | 26.11° C | 72% | 1008.5 hPa | 0 mm | - | - | - |
| 1778016518 | 25.56° C | 72% | 1008.5 hPa | 0 mm | - | - | - |
| 1778014097 | 26.11° C | 71% | 1008.5 hPa | 0 mm | - | - | - |
| 1778013517 | 26.11° C | 69% | 1008.7 hPa | 0 mm | - | - | - |
| 1778010497 | 26.67° C | 67% | 1009.4 hPa | 0 mm | - | - | - |
| 1778006897 | 26.11° C | 68% | 1009.8 hPa | 0 mm | - | - | - |
| 1778005096 | 26.67° C | 69% | 1010 hPa | 0 mm | - | - | - |
| 1777996696 | 25.56° C | 69% | 1010.2 hPa | 0 mm | - | - | - |
| 1777996118 | 25.56° C | 70% | 1010.3 hPa | 0 mm | - | - | - |
| 1777991896 | 23.89° C | 75% | 1010.3 hPa | 0 mm | - | - | - |
| 1777988917 | 21.11° C | 85% | 1010.5 hPa | 0 mm | - | - | - |
| 1777987696 | 18.89° C | 88% | 1010.4 hPa | 0 mm | - | - | - |
* Rain latest hour (hover to see other rain measurements)
** Current wind speed in m/s (hover to see current wind gust speed)